Temperature
14 13 13 13 13 13 13 13 13 12 12 11 11 11 11 11 11 11 11 11 11 11 11 11 11 11 11 11 11 11 11 10 10 10 10 10 10 10
13 13 13 13 13 13 13 13 12 12 12 12 11 11 11 11 11 11 11 11 11 11 11 11 11 11 11 10 10 10 10 10 10 10 10 10 10 10
13 13 13 13 13 13 13 13 12 12 12 12 11 11 11 11 11 11 11 11 11 11 11 11 10 10 10 10 10 10 10 10 10 10 10 10 9 9
13 13 13 13 13 13 12 12 12 12 12 12 11 11 11 11 11 10 10 10 11 10 10 10 10 10 10 10 10 10 10 10 9 9 9 9 9 9
13 13 13 13 13 13 12 12 12 12 12 12 11 11 11 11 10 10 10 10 10 10 10 10 10 10 10 10 10 10 10 10 9 9 9 9 9 9
13 13 13 13 13 13 12 12 12 12 12 11 11 11 11 10 10 10 10 10 10 10 10 10 10 10 10 9 9 9 9 9 9 9 9 9 9 9
13 13 13 13 13 13 12 12 12 12 11 11 11 11 10 10 10 10 10 10 10 10 10 10 10 10 10 9 9 9 9 9 9 9 9 9 9 8
13 13 13 13 12 12 12 12 12 12 11 11 11 11 11 10 10 10 10 9 9 9 9 9 9 9 10 9 9 9 9 9 9 9 9 9 8 8
12 12 12 12 12 12 12 12 11 11 11 11 11 11 11 11 10 10 10 10 9 9 9 9 9 9 9 9 9 9 9 9 9 9 8 8 8 8
12 12 12 12 12 12 12 11 11 11 11 11 11 11 11 10 10 10 10 9 9 9 9 9 9 9 9 9 9 9 8 8 8 8 8 8 8 8
12 12 12 12 12 12 11 11 11 11 11 10 10 10 10 10 10 10 9 9 9 9 9 8 8 8 9 9 9 8 8 8 8 8 8 7 7 7
12 11 11 11 11 11 11 11 11 11 10 10 10 10 10 10 10 9 9 9 9 8 9 8 8 8 8 8 8 8 8 8 8 7 7 7 7 7
11 11 11 11 11 11 11 11 11 10 10 10 10 10 10 10 9 9 9 9 9 9 8 8 8 8 8 8 8 8 8 7 7 7 7 7 6 6
11 11 11 11 11 11 11 11 10 10 10 10 9 9 9 9 9 9 9 9 8 8 8 8 8 8 7 7 7 7 7 7 7 7 6 6 6 6
11 11 11 11 11 10 10 10 10 10 10 9 9 9 9 9 9 9 9 8 8 8 8 8 8 7 7 7 7 7 7 6 6 6 6 6 6 6
10 10 10 10 10 10 10 10 10 10 10 9 9 9 9 9 9 9 8 8 8 8 8 7 7 7 7 7 7 7 6 6 6 6 6 6 5 5
10 10 10 10 10 10 9 9 9 9 9 9 9 9 9 8 8 8 8 8 8 8 7 7 7 7 7 7 7 6 6 6 6 6 5 5 5 5
9 9 9 9 9 9 9 9 9 9 9 9 9 9 8 8 8 8 8 8 7 7 7 7 7 6 6 6 6 6 6 6 6 5 5 5 5 5
9 9 9 9 9 9 9 9 9 9 9 9 8 8 8 8 8 8 7 7 7 7 7 7 6 6 6 6 6 6 6 6 5 5 5 5 5 5
8 8 8 8 8 8 8 8 8 8 8 8 8 8 8 7 7 7 7 7 7 7 7 6 6 6 6 6 6 6 6 5 5 5 5 5 4 4
8 8 8 8 8 8 8 8 8 8 8 8 8 7 7 7 7 7 7 7 7 7 6 7 7 6 6 5 5 6 6 5 5 5 4 4 4 4
7 7 7 7 7 7 7 7 7 7 7 7 7 7 7 7 7 7 7 7 6 6 6 6 6 5 5 5 5 5 5 5 5 4 4 4 4 4
7 7 7 7 7 7 7 7 7 7 7 7 7 7 7 6 6 6 6 6 6 6 6 6 5 5 5 5 5 5 5 5 4 4 4 4 4 3
Wind_Speed
1 2 1 1 1 1 1 2 2 1 0 1 1 1 4 6 6 5 6 6 5 5 5 5 5 5 6 6 6 6 6 6 6 6 6 6 6 6
1 1 1 1 1 1 1 0 1 2 1 1 1 2 3 5 5 5 6 6 5 4 4 4 4 5 5 5 5 5 5 5 5 5 6 6 5 5
2 2 2 1 1 1 1 1 1 2 2 1 1 2 3 3 5 5 6 6 5 4 3 3 4 4 4 4 4 4 4 4 4 4 4 4 5 4
3 3 3 2 2 1 1 1 1 1 3 3 2 2 2 3 4 4 4 4 5 4 4 3 3 3 3 4 3 3 3 3 3 2 3 3 3 3
4 4 4 4 3 2 2 2 2 2 2 3 2 2 1 2 3 2 3 3 3 4 5 4 4 4 4 3 3 2 2 2 2 1 1 1 2 2
3 3 3 4 4 4 3 3 2 2 3 3 2 2 2 2 3 2 1 0 1 3 4 4 4 5 4 4 4 3 3 2 2 2 1 1 2 2
3 2 3 4 4 3 2 2 2 2 2 3 3 2 2 2 3 2 2 1 1 3 2 3 5 5 5 5 5 5 5 4 4 3 3 3 3 3
3 3 4 5 4 4 3 3 3 3 3 3 2 3 4 3 3 3 2 2 1 2 1 2 4 3 6 7 7 7 7 6 6 5 4 4 4 4
3 3 2 3 5 3 3 3 2 3 4 4 4 4 4 4 4 3 3 3 3 3 2 2 2 3 6 8 10 9 9 7 7 6 6 6 6 6
3 3 4 4 4 4 3 3 3 3 4 4 4 4 3 3 4 4 4 2 1 1 3 2 2 2 4 7 10 11 10 10 9 8 7 7 7 7
2 2 4 5 6 6 4 3 3 3 4 5 4 4 4 5 5 3 2 2 1 2 2 2 2 2 2 3 8 11 11 11 10 10 9 8 8 8
2 2 3 4 5 7 5 5 4 3 3 2 2 3 4 6 7 5 4 4 2 2 3 2 2 1 2 2 5 8 9 10 11 10 10 9 8 6
2 2 3 5 5 6 5 5 6 4 3 3 3 3 3 3 4 5 5 4 4 3 3 3 2 1 2 2 2 5 7 6 7 8 9 10 9 7
3 2 3 5 6 7 6 6 6 4 3 3 3 3 3 3 3 4 5 5 5 4 5 5 2 3 2 2 3 2 4 6 6 5 6 7 9 9
2 2 2 4 6 5 6 6 5 3 3 3 4 4 4 3 2 2 2 3 3 4 4 5 3 3 3 4 4 3 2 3 5 4 4 4 5 5
2 2 2 3 4 5 4 4 4 4 4 4 4 3 2 2 3 2 2 2 2 3 3 5 5 4 4 4 4 4 3 3 2 3 3 4 5 6
3 2 1 1 3 3 3 4 4 4 4 4 3 3 3 3 3 3 3 3 3 4 3 2 4 5 4 4 4 5 4 4 4 4 3 4 4 6
3 3 4 4 4 4 4 4 4 5 5 5 5 4 4 4 4 3 3 4 5 5 4 3 2 1 2 3 5 6 4 4 4 4 4 4 5 5
3 4 5 5 5 5 5 5 5 5 4 5 5 5 5 5 4 4 4 4 5 5 5 4 3 3 5 6 5 7 5 5 4 4 4 4 5 5
4 5 5 5 5 5 5 5 5 5 5 5 5 6 6 5 5 5 6 6 6 5 5 4 5 6 8 7 4 4 8 6 5 5 5 3 4 5
5 5 5 5 5 5 5 5 5 5 5 5 6 6 5 5 5 6 6 7 6 5 6 7 7 7 4 2 3 5 4 8 8 5 4 3 4 4
5 5 5 5 5 5 5 5 5 5 6 6 6 6 6 5 6 6 6 5 6 6 7 5 4 4 4 6 8 7 5 4 7 8 7 6 4 5
6 6 5 5 5 4 4 5 6 5 5 5 5 5 5 5 5 5 6 6 5 6 6 5 4 4 6 7 7 6 5 4 3 3 5 9 11 12
Wind_Direction
147 142 143 153 119 120 112 135 140 139 234 153 95 106 118 121 123 116 121 116 109 99 89 83 83 81 79 79 77 76 74 72 71 67 63 64 65 60
130 114 134 158 126 87 84 64 95 138 152 131 135 138 134 127 125 119 128 122 122 119 107 98 98 96 97 94 90 86 83 76 72 67 60 56 57 58
174 167 193 176 149 135 94 78 60 99 116 100 97 124 127 125 130 133 138 137 143 148 139 124 121 114 113 112 105 97 92 83 81 72 59 52 51 50
192 177 187 168 156 152 138 144 151 138 136 142 138 133 138 149 145 155 152 156 153 165 164 154 153 150 141 132 124 114 107 108 99 80 60 43 41 38
194 185 184 164 179 179 175 171 173 146 128 143 158 158 161 157 136 149 156 154 165 168 169 171 174 173 170 165 157 159 142 136 133 112 69 28 12 10
197 184 171 168 180 182 186 184 168 155 145 148 159 165 169 168 141 152 173 208 195 174 164 173 185 190 195 194 194 193 185 192 202 203 219 271 322 329
185 164 143 133 124 139 159 158 147 150 159 165 172 167 177 171 181 182 182 198 245 180 167 189 192 191 192 203 209 210 210 212 218 221 224 239 265 286
195 176 158 148 142 143 146 135 143 167 176 174 183 188 197 194 186 183 174 169 241 220 173 235 191 191 191 197 207 212 217 220 218 224 235 242 254 268
203 187 180 168 155 156 169 182 197 211 202 190 194 202 195 193 179 186 195 193 214 213 155 239 226 214 205 208 208 210 215 218 223 232 239 247 255 261
210 187 175 159 165 160 173 194 207 221 215 201 195 201 193 180 181 188 193 192 202 205 165 217 239 231 215 208 211 212 214 218 223 231 240 247 253 262
231 201 184 173 182 173 171 190 208 233 211 191 190 186 184 181 171 151 166 166 227 240 190 184 231 244 233 212 214 214 216 221 227 232 238 250 256 261
236 221 200 188 181 175 183 191 207 220 198 185 194 209 203 195 190 183 181 188 201 226 210 177 208 175 269 240 204 208 214 226 230 233 239 246 251 250
221 220 207 194 187 190 199 204 211 207 194 189 198 210 207 198 199 199 186 182 197 224 202 166 195 195 212 264 246 209 204 216 222 231 239 246 249 239
217 214 203 201 198 200 206 216 218 209 199 202 204 212 215 215 207 194 192 191 196 205 195 175 188 201 214 254 266 245 220 214 206 213 229 246 252 250
223 217 226 211 197 201 210 216 210 199 198 208 216 221 213 205 179 173 193 192 204 217 211 202 194 201 203 230 248 245 246 241 207 208 221 227 235 235
244 253 247 219 203 207 212 215 206 203 203 213 221 218 200 191 192 195 206 203 223 264 237 222 215 206 223 233 230 242 231 225 225 220 219 239 246 234
203 212 209 189 206 213 207 206 205 207 216 217 216 215 210 203 208 202 199 199 213 234 255 265 230 220 223 221 232 239 234 237 232 221 222 249 254 239
184 207 218 217 218 217 214 215 214 214 214 213 215 214 211 211 214 210 203 208 221 229 230 229 219 299 310 275 228 230 232 236 237 222 211 237 259 251
199 221 224 225 226 224 220 217 220 221 215 210 214 216 214 214 211 212 211 218 228 231 229 212 197 204 239 260 265 225 221 232 232 237 232 234 248 250
215 227 233 233 230 229 227 222 220 219 218 219 218 217 215 216 217 216 215 219 228 232 230 219 213 215 227 240 250 262 232 219 220 234 244 253 258 260
224 230 235 236 234 236 236 230 222 220 220 219 221 219 218 221 225 222 219 224 227 229 230 233 235 225 225 220 253 259 256 233 225 224 226 238 262 264
229 232 234 236 234 235 239 236 231 227 224 223 223 221 221 222 226 224 220 222 227 230 237 239 227 216 215 227 244 251 256 256 240 236 234 227 218 229
229 230 231 234 237 239 237 238 237 235 231 229 226 223 221 226 228 225 225 227 228 229 234 236 230 223 226 230 239 246 244 246 241 243 260 256 248 248
Height
1551 1552 1552 1552 1553 1553 1554 1554 1555 1554 1555 1555 1555 1554 1554 1554 1554 1553 1553 1553 1554 1554 1553 1553 1554 1554 1554 1554 1554 1553 1553 1553 1553 1553 1552 1552 1551 1550
1550 1550 1551 1551 1551 1552 1553 1553 1554 1554 1554 1554 1554 1554 1554 1554 1553 1553 1553 1553 1553 1553 1553 1553 1553 1554 1554 1553 1553 1553 1553 1553 1553 1552 1552 1551 1551 1550
1549 1549 1549 1550 1550 1551 1551 1552 1552 1553 1552 1553 1553 1553 1553 1553 1553 1553 1553 1553 1553 1553 1553 1553 1553 1553 1553 1553 1553 1553 1552 1552 1552 1552 1551 1551 1550 1550
1547 1548 1548 1548 1549 1549 1549 1550 1550 1551 1551 1551 1552 1552 1553 1553 1553 1552 1552 1552 1552 1552 1552 1552 1552 1552 1552 1552 1552 1552 1551 1551 1551 1550 1550 1549 1549 1549
1546 1546 1546 1547 1547 1547 1548 1548 1549 1549 1550 1550 1551 1551 1551 1551 1551 1552 1552 1551 1551 1551 1551 1551 1551 1551 1551 1551 1550 1550 1550 1549 1549 1549 1548 1548 1547 1547
1544 1544 1544 1545 1545 1546 1546 1547 1547 1548 1548 1549 1549 1550 1550 1550 1550 1550 1550 1550 1550 1550 1550 1550 1550 1550 1549 1549 1549 1549 1548 1548 1547 1547 1546 1546 1545 1545
1541 1542 1542 1543 1543 1544 1544 1545 1545 1546 1546 1547 1547 1547 1548 1548 1548 1548 1548 1548 1548 1548 1548 1548 1548 1547 1547 1547 1547 1547 1546 1546 1545 1545 1544 1544 1543 1543
1538 1539 1539 1540 1540 1541 1542 1542 1543 1543 1543 1544 1544 1545 1545 1545 1546 1546 1546 1546 1545 1547 1546 1546 1545 1545 1545 1545 1545 1545 1544 1544 1543 1542 1542 1541 1541 1540
1535 1536 1536 1537 1537 1538 1539 1540 1540 1541 1541 1542 1541 1542 1542 1542 1543 1543 1543 1543 1543 1544 1544 1543 1543 1542 1542 1542 1542 1542 1541 1541 1540 1540 1539 1539 1538 1537
1532 1532 1533 1533 1534 1535 1535 1536 1537 1537 1538 1538 1539 1539 1540 1540 1540 1541 1541 1541 1541 1541 1542 1541 1540 1540 1540 1540 1539 1539 1539 1538 1538 1537 1536 1536 1535 1535
1528 1529 1529 1530 1530 1531 1531 1532 1533 1534 1535 1535 1536 1536 1537 1537 1537 1538 1538 1538 1538 1538 1538 1538 1537 1537 1537 1536 1536 1536 1535 1535 1534 1534 1533 1533 1532 1531
1523 1524 1525 1526 1526 1527 1527 1528 1528 1529 1530 1531 1532 1533 1533 1534 1534 1534 1535 1535 1534 1534 1534 1534 1534 1534 1533 1533 1533 1533 1532 1531 1531 1530 1530 1529 1528 1528
1518 1519 1520 1522 1522 1523 1524 1524 1525 1526 1526 1527 1527 1528 1529 1530 1530 1530 1531 1531 1531 1531 1531 1531 1530 1530 1530 1529 1529 1529 1528 1528 1527 1527 1526 1526 1525 1524
1514 1515 1516 1517 1518 1519 1519 1520 1521 1522 1522 1523 1523 1524 1524 1525 1525 1526 1527 1527 1527 1527 1527 1527 1527 1527 1526 1525 1525 1524 1524 1524 1523 1523 1522 1522 1521 1520
1510 1511 1512 1513 1513 1514 1515 1516 1516 1517 1517 1518 1518 1519 1520 1521 1521 1522 1522 1522 1522 1523 1523 1523 1523 1522 1522 1521 1520 1520 1520 1519 1519 1519 1518 1518 1517 1516
1506 1506 1507 1508 1508 1509 1510 1511 1511 1512 1512 1513 1514 1514 1515 1516 1516 1517 1517 1517 1517 1517 1517 1518 1518 1518 1517 1516 1516 1515 1515 1515 1514 1514 1514 1513 1512 1511
1501 1501 1502 1503 1503 1503 1504 1505 1506 1507 1507 1508 1509 1509 1510 1510 1511 1511 1512 1512 1512 1511 1511 1512 1513 1513 1512 1512 1511 1510 1510 1509 1509 1509 1508 1507 1507 1506
1496 1496 1496 1497 1497 1498 1498 1499 1500 1501 1501 1502 1503 1504 1504 1504 1505 1506 1506 1507 1506 1506 1506 1507 1507 1507 1507 1506 1506 1505 1505 1504 1504 1504 1503 1502 1501 1501
1490 1490 1490 1491 1491 1492 1493 1493 1494 1495 1496 1496 1497 1497 1498 1499 1499 1500 1500 1501 1500 1500 1501 1501 1501 1501 1500 1499 1499 1500 1499 1499 1499 1498 1498 1497 1496 1495
1484 1484 1484 1485 1486 1486 1487 1487 1488 1489 1489 1490 1491 1491 1492 1493 1493 1493 1494 1494 1494 1494 1494 1495 1495 1494 1494 1494 1493 1493 1494 1494 1493 1492 1492 1491 1491 1490
1478 1478 1479 1479 1480 1480 1481 1481 1482 1482 1483 1484 1484 1485 1486 1486 1486 1487 1487 1488 1488 1488 1488 1488 1488 1489 1489 1489 1488 1486 1487 1488 1488 1488 1487 1486 1485 1484
1472 1472 1473 1473 1474 1474 1475 1475 1475 1476 1476 1477 1477 1478 1479 1480 1480 1481 1481 1481 1481 1482 1482 1482 1483 1483 1483 1482 1481 1480 1480 1481 1482 1482 1482 1481 1480 1478
1466 1467 1467 1467 1467 1468 1468 1468 1469 1469 1470 1470 1471 1471 1472 1472 1473 1474 1475 1475 1475 1476 1476 1476 1476 1476 1476 1476 1475 1475 1474 1475 1474 1474 1475 1475 1475 1474